This is the latest recevied weather packets stored in our database for station/object N1JOV-7. If no packets are shown the sender has not sent any weather packets the latest 10 day(s).
| Time | Temp. | Humidity | Pressure | Rain* | Wind** | Luminosity | Snow |
|---|---|---|---|---|---|---|---|
| 1777572662 | 7.78° C | 99% | 1008.1 hPa | 2.29 mm | - | - | - |
| 1777572062 | 7.22° C | 99% | 1008.2 hPa | 0.25 mm | - | - | - |
| 1777571462 | 7.22° C | 99% | 1008.2 hPa | 0.76 mm | - | - | - |
| 1777570862 | 7.22° C | 99% | 1007.9 hPa | 1.27 mm | - | - | - |
| 1777570261 | 7.22° C | 99% | 1007.8 hPa | 1.27 mm | - | - | - |
| 1777569661 | 7.78° C | 99% | 1007.9 hPa | 0 mm | - | - | - |
| 1777569062 | 7.78° C | 99% | 1008 hPa | 2.03 mm | - | - | - |
| 1777568462 | 7.78° C | 99% | 1008.7 hPa | 0.76 mm | - | - | - |
| 1777567862 | 7.78° C | 99% | 1008.6 hPa | 0 mm | - | - | - |
| 1777567262 | 7.78° C | 99% | 1008.5 hPa | 0 mm | - | - | - |
| 1777566662 | 7.78° C | 99% | 1008.7 hPa | 0 mm | - | - | - |
| 1777566061 | 7.78° C | 99% | 1008.7 hPa | 0 mm | - | - | - |
| 1777565461 | 7.78° C | 99% | 1008.9 hPa | 0 mm | - | - | - |
| 1777564861 | 7.78° C | 99% | 1009 hPa | 0 mm | - | - | - |
| 1777564262 | 8.33° C | 99% | 1009 hPa | 1.02 mm | - | - | - |
| 1777563662 | 8.33° C | 99% | 1009.2 hPa | 0.76 mm | - | - | - |
| 1777563062 | 8.33° C | 99% | 1009.3 hPa | 0 mm | - | - | - |
| 1777562462 | 8.33° C | 99% | 1009.3 hPa | 0 mm | - | - | - |
| 1777561862 | 7.78° C | 99% | 1009.2 hPa | 0 mm | - | - | - |
| 1777561261 | 7.78° C | 99% | 1009.6 hPa | 0 mm | - | - | - |
| 1777560661 | 7.78° C | 99% | 1009.7 hPa | 0 mm | - | - | - |
| 1777560061 | 7.22° C | 99% | 1009.6 hPa | 0.76 mm | - | - | - |
| 1777559462 | 7.22° C | 99% | 1009.7 hPa | 0.76 mm | - | - | - |
| 1777558862 | 7.78° C | 99% | 1009.8 hPa | 0 mm | - | - | - |
| 1777558262 | 7.22° C | 99% | 1009.9 hPa | 0 mm | - | - | - |
* Rain latest hour (hover to see other rain measurements)
** Current wind speed in m/s (hover to see current wind gust speed)